Location: Waco, TX
(31.5480°N, 97.1670°W)
Time: 00:50:46
(UTC-06:00)

ISS - Pass Details

Date: 14 January 2018
Orbit: 402 x 407 km, 51.6° (Epoch: 21 January)

Event Time Altitude Azimuth Distance (km) Brightness Sun altitude
Rises 06:58:31 0° 318° (NW) 2,323 - -6.8°
Exits shadow 06:59:48 - 320° (NW) 1,798 -1.1 -6.5°
Reaches altitude 10° 07:00:37 10° 322° (NW) 1,461 -1.5 -6.3°
Maximum altitude 07:03:52 63° 44° (NE) 455 -3.5 -5.7°
Drops below altitude 10° 07:07:07 10° 126° (SE) 1,456 0.6 -5.1°
Sets 07:09:12 0° 130° (SE) 2,314 1.8 -4.6°
